Tracking 19854 objects as of 22-Sep-2019
HD Live streaming from Space Station
objects crossing your sky now

COSMOS 529

Track COSMOS 529 now!
10-day predictions
COSMOS 529 is classified as:


NORAD ID: 6264
Int'l Code: 1972-087B
Perigee: 1,408.6 km
Apogee: 1,475.0 km
Inclination: 74.0 °
Period: 114.5 minutes
Semi major axis: 7812 km
RCS: 0.695 m2 (medium)
Launch date: November 1, 1972
Source: Commonwealth of Independent States (former USSR) (CIS)
Launch site: PLESETSK MISSILE AND SPACE COMPLEX (PKMTR)
aabbcc
Your satellite tracking list
Your tracking list is empty




NASA's NSSDC Master Catalog

Two Line Element Set (TLE):
1  6264U 72087B   19264.56020508 -.00000013  00000-0  21780-4 0  9997
2  6264  74.0335  70.2168 0042543 287.0867 142.7602 12.57168315151998
Source of the keplerian elements: AFSPC